Home > Weather > Ostrava > Past weeks

Flag for Czech Republic Weather for the Past 2 Weeks in Ostrava, Czech Republic

Now
36 °F

Light rain. Overcast.


Feels Like: 31 °F
Forecast: 35 / 47 °F
Wind: 6 mph from Northeast

Location: Ostrava / Mosnov

Current Time: Feb 13, 2016 at 3:47:36 AM

Latest Report: Feb 13, 2016 at 3:00 AM


Visibility: N/A

Pressure: 29.47 "Hg

Humidity: 93%

Dew point: 34 °F

Location of OstravaLocation

Historic Weather in Ostrava — Graph

°F

Ostrava Temperature Yesterday

Maximum temperature yesterday: 43 °F (at 2:30 PM)
Minimum temperature yesterday: 28 °F (at 4:00 AM)
Average temperature yesterday: 36 °F

High & Low Weather Summary for the Past Weeks

 TemperatureHumidityPressure
High55 °F (Feb 9, 2:00 PM)100% (Jan 29, 2:30 AM)30.33 "Hg (Jan 29, 2:30 AM)
Low28 °F (Feb 12, 4:00 AM)47% (Feb 9, 12:30 PM)29.24 "Hg (Feb 10, 3:30 AM)
Average42 °F75%29.89 "Hg
* Reported Jan 29 2:00 AM — Feb 13 2:00 AM, Ostrava, Weather by CustomWeather, © 2016

Note: Actual official high and low records may vary slightly from our data, if they occured in-between our weather recording intervals... More about our weather records

Advertising

Ostrava Weather History for the Previous 24 Hours

 ConditionsComfort  
Time TempWeatherWind HumidityBarometerVisibility
2:00 AM
Sat, Feb 13
36 °FOvercast.6 mph93%29.50 "HgN/A
1:00 AM37 °FOvercast.6 mph87%29.50 "HgN/A
12:00 AM37 °FOvercast.2 mph81%29.53 "HgN/A
11:00 PM
Fri, Feb 12
36 °FMostly cloudy.2 mph87%29.53 "HgN/A
10:30 PM37 °FOvercast.3 mph81%29.56 "HgN/A
10:00 PM36 °FClear.1 mph81%29.56 "Hg10 mi
9:30 PM37 °FPassing clouds.2 mph75%29.56 "HgN/A
9:00 PM37 °FPassing clouds.5 mph75%29.56 "HgN/A
8:30 PM39 °FOvercast.3 mph70%29.59 "HgN/A
8:00 PM39 °FPassing clouds.2 mph70%29.59 "HgN/A
7:30 PM39 °FPassing clouds.5 mph70%29.59 "HgN/A
7:00 PM39 °FPassing clouds.3 mph70%29.62 "HgN/A
6:30 PM41 °FPassing clouds.7 mph66%29.62 "HgN/A
6:00 PM39 °FPassing clouds.2 mph70%29.62 "HgN/A
5:30 PM39 °FClear.7 mph70%29.62 "Hg10 mi
5:00 PM39 °FPassing clouds.8 mph70%29.62 "HgN/A
4:30 PM41 °FPassing clouds.12 mph66%29.62 "HgN/A
4:00 PM43 °FPassing clouds.6 mph66%29.65 "HgN/A
3:30 PM43 °FScattered clouds.8 mph61%29.65 "HgN/A
3:00 PM43 °FPartly sunny.8 mph61%29.65 "HgN/A
2:30 PM43 °FPartly sunny.5 mph66%29.65 "HgN/A
2:00 PM41 °FMostly cloudy.2 mph70%29.65 "HgN/A
1:30 PM41 °FPartly sunny.2 mph70%29.68 "HgN/A
1:00 PM41 °FScattered clouds.2 mph70%29.68 "HgN/A
12:30 PM39 °FPassing clouds.2 mph75%29.71 "HgN/A
12:00 PM37 °FSunny.1 mph81%29.71 "Hg10 mi
11:30 AM37 °FPartly sunny.No wind75%29.71 "HgN/A
11:00 AM36 °FPartly sunny.No wind81%29.71 "HgN/A
10:30 AM36 °FBroken clouds.2 mph81%29.74 "HgN/A
10:00 AM34 °FPartly sunny.No wind87%29.74 "HgN/A
9:30 AM34 °FScattered clouds.1 mph87%29.74 "HgN/A
9:00 AM32 °FSunny.2 mph87%29.74 "Hg10 mi
8:30 AM32 °FSunny.3 mph87%29.74 "Hg10 mi
8:00 AM30 °FPassing clouds.2 mph86%29.74 "HgN/A
7:30 AM30 °FSunny.1 mph93%29.74 "Hg10 mi
7:00 AM30 °FClear.1 mph93%29.74 "Hg10 mi
6:30 AM30 °FClear.2 mph86%29.74 "Hg10 mi
6:00 AM30 °FClear.7 mph93%29.74 "Hg10 mi
5:30 AM30 °FClear.9 mph93%29.74 "Hg10 mi
5:00 AM30 °FClear.8 mph86%29.74 "Hg10 mi
4:30 AM28 °FClear.8 mph93%29.74 "Hg10 mi
4:00 AM28 °FClear.9 mph93%29.74 "Hg10 mi
3:30 AM30 °FClear.12 mph93%29.74 "Hg10 mi
3:00 AM30 °FClear.7 mph93%29.74 "Hg10 mi
Weather by CustomWeather, © 2016

See weather overviewHow to use our weather pages